CAPE
0 0 0 0 0 0 3 32 88 109 67 100 123 117 375 484 474 565 815 993 915 951 1044 1208 1354 1397 1446 1568 1692 1942 2136 2369 2343 2225 2231 2191 2124 2505 2528 3023 2155 2236 2200 2065
0 0 0 0 0 0 3 26 61 37 77 90 73 112 212 469 467 449 567 798 909 949 1061 1194 1218 1112 1228 1464 1556 1927 2158 2470 2450 2243 2219 2141 2320 2340 2284 2316 2531 2368 2187 2212
0 0 0 0 0 0 0 26 36 36 35 84 125 53 123 363 453 386 373 437 517 625 771 803 895 994 1072 1207 1479 1855 2352 2496 2355 2319 2246 2213 2093 1995 2047 2142 2051 2139 2190 2098
0 0 0 0 0 0 0 0 49 57 61 27 65 33 99 263 507 477 433 378 368 404 489 501 559 825 1042 1050 1237 1930 2090 2373 2201 2315 2123 2226 2031 2048 1997 1715 1850 2166 1969 1755
0 0 0 0 0 0 0 0 1 42 86 27 67 11 21 169 328 526 526 476 401 343 374 418 437 617 875 988 1010 1290 1956 2266 2125 2231 2494 2233 2289 2205 1978 1343 1741 2161 1491 1272
0 0 0 0 0 0 0 0 0 3 27 9 4 6 0 129 283 331 337 426 430 364 366 391 427 460 687 861 956 1079 1775 2272 1972 1986 2208 2383 2460 2394 1770 1226 917 1431 980 646
0 0 0 0 0 0 0 0 0 0 2 0 0 4 28 31 143 186 224 287 333 347 325 376 498 533 844 978 1106 1289 1901 2078 1724 1808 2119 2245 2455 2598 2089 1713 1042 980 809 788
0 0 0 0 0 0 0 0 0 0 0 0 0 0 0 65 64 76 182 198 282 313 480 472 865 826 870 856 1482 1580 1893 2043 1843 1745 2342 2624 2586 2301 1931 1566 945 839 779 375
0 0 0 0 0 0 0 0 0 0 0 0 0 0 0 1 2 3 52 129 258 414 476 586 646 669 1003 1233 1504 1687 1960 2119 2131 1937 2549 2539 2658 2339 1886 1279 876 784 596 218
0 0 0 0 0 0 0 0 0 0 0 0 0 0 0 0 26 60 30 83 204 438 564 650 987 1080 1203 1239 1576 1769 1965 2128 2101 1735 2295 2292 2138 1525 1772 1102 717 547 449 299
0 0 0 0 0 0 0 0 0 0 0 0 0 0 0 0 23 46 67 40 117 376 478 840 1182 1147 1346 1272 1248 1506 1758 2155 2181 2148 2529 2604 1803 1413 1361 856 472 105 427 354
0 0 0 0 0 0 0 0 0 0 0 0 0 0 0 0 0 1 17 14 13 242 398 794 989 1127 1133 1399 1201 1352 1712 1746 2154 2247 2482 2167 1353 1130 1063 1100 126 256 172 253
0 0 0 0 0 0 0 0 0 0 0 0 0 0 0 0 0 0 0 8 34 198 372 716 921 1421 1637 1614 1876 1781 1740 1674 1835 2124 1876 1667 1088 953 1066 1135 117 174 201 130
0 0 0 0 0 0 0 0 0 0 0 0 0 0 0 0 0 14 11 41 77 96 315 723 939 1362 1812 2066 2137 2074 1843 1713 1776 1868 2014 1954 1376 839 1109 1079 381 0 27 23
8 0 0 0 0 0 0 0 0 0 0 0 0 0 0 0 24 121 260 186 138 135 292 819 854 1438 1873 2011 2267 2070 1847 2277 2222 2281 2131 1729 1138 743 918 1217 665 13 5 0
35 19 0 0 0 0 0 0 0 0 0 0 0 0 0 0 0 29 131 138 205 221 283 636 941 1039 1354 1593 1551 1544 1826 2155 2336 2491 2137 1723 1174 1117 964 1150 883 366 155 125
121 53 44 0 1 0 0 0 0 0 0 0 0 0 0 0 0 48 319 172 351 513 437 461 832 1341 1283 1162 1356 1360 1523 1742 2209 2265 2058 1653 1140 1097 1161 1136 999 569 372 163
109 35 35 17 25 9 0 0 0 0 0 0 0 0 0 0 14 54 115 206 316 498 596 514 337 460 763 767 898 1236 1413 1817 2101 2246 2044 1586 1018 1093 1083 1121 1161 853 398 262
85 37 47 30 65 9 0 0 0 0 0 0 0 0 0 0 0 28 0 0 107 106 213 313 309 338 525 581 800 1167 1478 1780 2043 2203 2051 1448 994 1144 1183 1223 1197 1055 588 244
27 103 36 63 26 3 54 24 15 10 0 0 0 1 0 0 4 111 0 0 23 107 348 524 390 541 788 971 1083 1461 1718 1874 2027 2097 1975 1483 1192 1321 1348 1423 1598 895 587 375
231 640 334 386 121 92 4 44 64 64 16 0 2 34 0 22 30 8 25 122 232 270 300 485 683 943 1193 1210 1576 1854 1834 1970 2036 1854 1765 1322 1378 1321 1424 1361 1137 756 612 387
442 381 742 491 219 294 0 97 193 108 0 0 19 25 100 182 297 312 386 479 618 696 677 786 1133 1072 1120 1388 1795 1724 1634 1223 1285 1265 1217 1285 1325 1129 1026 972 973 806 688 732
396 435 493 452 244 36 22 157 125 117 130 126 141 98 210 118 150 252 361 403 499 635 675 791 833 978 922 1087 1484 1260 608 877 1036 1012 1151 1102 927 993 910 932 883 807 695 302
485 335 239 385 150 12 116 110 108 97 96 88 65 62 67 139 373 694 755 750 715 585 535 542 435 323 420 579 807 620 615 779 922 969 902 853 987 817 714 548 443 419 301 203
195 300 208 182 51 26 68 78 62 105 123 87 74 82 102 88 18 142 550 636 695 659 567 611 646 574 551 643 692 770 875 928 827 779 703 835 864 664 277 279 93 10 13 10
151 196 306 107 132 209 43 31 16 55 50 66 74 74 56 76 33 46 91 182 427 569 427 510 522 507 636 687 636 712 775 643 610 564 480 289 264 124 75 63 1 0 0 0
CIN
-0 -0 -0 -0 -0 -0 -53 -39 -31 -94 -164 -132 -114 -103 -141 -166 -167 -145 -118 -111 -116 -118 -106 -61 -46 -30 -26 -28 -31 -29 -21 -22 -13 -7 -1 -0 -0 -0 -0 -1 -0 -3 -7 -8
-0 -0 -0 -0 -0 -0 -88 -40 -26 -102 -150 -101 -143 -114 -129 -158 -195 -185 -179 -145 -129 -111 -76 -63 -56 -67 -56 -38 -48 -37 -32 -24 -19 -7 -5 -1 -0 -0 -0 -0 -0 -1 -4 -6
-0 -0 -0 -0 -0 -0 -0 -55 -63 -34 -118 -164 -81 -58 -118 -181 -198 -225 -235 -210 -189 -167 -135 -125 -113 -102 -82 -72 -54 -44 -41 -33 -29 -17 -7 -4 -3 -3 -2 -0 -0 -0 -2 -1
-0 -0 -0 -0 -0 -0 -0 -0 -80 -70 -45 -26 -78 -25 -93 -107 -174 -220 -231 -263 -244 -235 -214 -175 -171 -143 -118 -114 -84 -50 -54 -42 -40 -26 -13 -4 -0 -0 -0 -0 -0 -0 -2 -4
-0 -0 -0 -0 -0 -0 -0 -0 -39 -70 -28 -39 -84 -33 -13 -203 -164 -187 -232 -249 -249 -227 -240 -219 -218 -178 -133 -121 -132 -86 -67 -50 -46 -32 -10 -5 -0 -0 -3 -39 -13 -0 -20 -27
-0 -0 -0 -0 -0 -0 -0 -0 -0 -19 -21 -29 -9 -13 -0 -108 -147 -131 -166 -225 -245 -228 -224 -232 -201 -193 -168 -145 -147 -139 -92 -65 -82 -65 -35 -15 -4 -0 -22 -69 -87 -24 -56 -78
-0 -0 -0 -0 -0 -0 -0 -0 -0 -0 -1 -0 -0 -25 -55 -63 -105 -94 -80 -205 -231 -230 -236 -230 -225 -238 -218 -205 -192 -173 -136 -112 -144 -114 -73 -56 -29 -10 -40 -59 -104 -91 -99 -86
-0 -0 -0 -0 -0 -0 -0 -0 -0 -0 -0 -0 -0 -0 -0 -85 -84 -193 -136 -141 -194 -220 -229 -245 -237 -246 -246 -265 -204 -185 -159 -136 -154 -156 -82 -40 -33 -43 -72 -102 -148 -141 -135 -170
-0 -0 -0 -0 -0 -0 -0 -0 -0 -0 -0 -0 -0 -0 -0 -16 -94 -119 -170 -165 -189 -221 -259 -265 -254 -271 -228 -251 -257 -252 -208 -174 -155 -164 -79 -59 -34 -52 -90 -154 -208 -198 -209 -243
-0 -0 -0 -0 -0 -0 -0 -0 -0 -0 -0 -0 -0 -0 -0 -0 -83 -89 -153 -173 -163 -217 -260 -252 -241 -273 -243 -265 -264 -258 -237 -217 -201 -203 -128 -113 -107 -171 -134 -198 -152 -271 -238 -252
-0 -0 -0 -0 -0 -0 -0 -0 -0 -0 -0 -0 -0 -0 -0 -0 -54 -51 -87 -178 -176 -220 -260 -256 -282 -294 -263 -283 -283 -281 -259 -209 -190 -201 -150 -111 -171 -206 -148 -226 -174 -358 -317 -284
-0 -0 -0 -0 -0 -0 -0 -0 -0 -0 -0 -0 -0 -0 -0 -0 -0 -5 -68 -151 -222 -267 -290 -302 -292 -314 -312 -283 -297 -286 -254 -245 -232 -225 -172 -189 -269 -189 -177 -155 -429 -324 -283 -337
-0 -0 -0 -0 -0 -0 -0 -0 -0 -0 -0 -0 -0 -0 -0 -0 -0 -0 -0 -82 -374 -432 -398 -380 -336 -322 -328 -316 -313 -305 -298 -258 -260 -218 -256 -261 -351 -213 -201 -138 -187 -261 -251 -214
-0 -0 -0 -0 -0 -0 -0 -0 -0 -0 -0 -0 -0 -0 -0 -0 -0 -159 -119 -312 -368 -520 -461 -427 -391 -368 -342 -350 -356 -349 -322 -293 -264 -256 -246 -229 -326 -380 -122 -122 -37 -0 -153 -223
-42 -0 -0 -0 -0 -0 -0 -0 -0 -0 -0 -0 -0 -0 -0 -0 -65 -127 -112 -224 -427 -523 -477 -458 -417 -388 -398 -403 -398 -407 -372 -307 -262 -252 -238 -280 -296 -132 -131 -79 -55 -88 -305 -0
-43 -15 -0 -0 -0 -0 -0 -0 -0 -0 -0 -0 -0 -0 -0 -0 -0 -254 -230 -264 -356 -456 -492 -477 -444 -450 -462 -449 -483 -478 -417 -336 -276 -210 -216 -223 -262 -124 -138 -80 -83 -83 -15 -0
-61 -12 -16 -0 -10 -0 -0 -0 -0 -0 -0 -0 -0 -0 -0 -0 -0 -201 -192 -271 -277 -335 -392 -440 -454 -477 -504 -487 -486 -465 -425 -371 -283 -221 -199 -224 -240 -196 -143 -81 -50 -86 -56 -12
-123 -132 -9 -17 -33 -13 -0 -0 -0 -0 -0 -0 -0 -0 -0 -0 -107 -232 -369 -292 -292 -269 -299 -414 -492 -507 -514 -461 -451 -448 -418 -365 -292 -211 -202 -224 -270 -209 -154 -98 -40 -51 -60 -44
-120 -76 -70 -7 -13 -24 -0 -0 -0 -0 -0 -0 -0 -0 -0 -0 -0 -438 -0 -0 -428 -543 -591 -549 -494 -448 -482 -506 -514 -490 -434 -352 -288 -206 -188 -229 -235 -169 -117 -113 -64 -18 -18 -10
-75 -132 -120 -48 -27 -4 -253 -449 -522 -184 -0 -0 -0 -25 -0 -0 -189 -195 -0 -0 -723 -661 -640 -611 -613 -524 -472 -464 -437 -403 -353 -310 -250 -221 -207 -227 -140 -141 -116 -41 -13 -28 -9 -34
-56 -87 -68 -34 -85 -111 -276 -288 -505 -133 -53 -0 -124 -382 -0 -373 -460 -857 -848 -784 -732 -722 -683 -596 -492 -430 -418 -426 -349 -285 -308 -262 -244 -244 -213 -255 -166 -148 -111 -57 -35 -39 -12 -49
-37 -17 -21 -38 -26 -53 -16 -242 -275 -488 -0 -14 -507 -641 -408 -620 -601 -612 -595 -577 -557 -564 -560 -511 -463 -483 -440 -385 -289 -312 -313 -396 -349 -382 -300 -177 -196 -191 -168 -108 -43 -13 -45 -23
-40 -55 -127 -45 -17 -217 -172 -137 -159 -454 -485 -527 -596 -679 -611 -657 -629 -584 -573 -570 -580 -543 -577 -506 -498 -467 -474 -437 -328 -362 -331 -437 -379 -272 -183 -177 -206 -173 -153 -122 -68 -60 -38 -62
-157 -182 -117 -72 -65 -73 -87 -100 -104 -99 -89 -74 -52 -119 -621 -605 -458 -342 -369 -397 -437 -500 -557 -578 -665 -677 -476 -571 -449 -296 -314 -370 -214 -204 -189 -189 -123 -153 -136 -164 -120 -104 -92 -88
-184 -169 -129 -58 -132 -67 -33 -91 -101 -101 -97 -137 -160 -104 -97 -91 -71 -464 -365 -357 -375 -393 -462 -485 -462 -533 -322 -265 -244 -210 -160 -117 -174 -200 -180 -110 -60 -74 -178 -142 -186 -70 -77 -63
-97 -99 -65 -31 -149 -123 -46 -18 -22 -71 -62 -135 -89 -107 -146 -98 -172 -96 -45 -549 -417 -386 -473 -281 -405 -347 -245 -202 -188 -186 -134 -140 -130 -97 -85 -123 -116 -118 -102 -99 -2 -0 -0 -0
Wind_Speed
nan nan nan nan nan nan nan nan nan 10 nan 7 16 20 11 13 18 16 15 14 14 16 17 17 16 13 9 7 6 5 5 5 4 2 3 3 5 4 7 8 10 10 10 11
nan nan nan nan nan nan nan nan nan nan nan nan nan 17 13 13 21 22 19 19 16 15 16 17 15 14 12 8 7 6 6 5 3 1 2 3 5 6 6 7 9 9 12 14
nan nan nan nan nan nan nan nan nan nan nan nan 10 nan 12 11 16 16 19 19 19 17 17 15 14 13 12 9 7 5 5 4 3 5 6 8 10 10 11 11 13 15 16 17
nan nan nan nan nan nan nan nan nan nan nan nan nan nan nan 10 11 18 18 19 18 15 12 13 11 11 10 8 6 6 5 6 7 10 10 11 11 11 14 17 21 22 20 18
nan nan nan nan nan nan nan nan nan nan nan nan nan nan nan 10 3 17 21 22 24 20 17 15 14 13 12 12 10 9 9 10 13 15 14 15 15 17 22 22 19 18 19 18
nan nan nan nan nan nan nan nan nan nan nan nan nan nan nan 11 5 16 16 16 23 22 20 19 15 13 15 12 13 13 15 14 17 18 19 21 22 20 19 20 18 19 20 20
nan nan nan nan nan nan nan nan nan nan nan nan nan nan nan nan 6 10 15 13 16 16 18 20 24 14 11 12 14 18 19 18 21 23 23 21 18 20 21 22 20 21 22 23
nan nan nan nan nan nan nan nan nan nan nan nan nan nan nan nan nan nan 13 9 2 12 15 22 24 25 20 17 18 19 20 19 22 16 16 18 19 18 18 19 21 24 24 27
nan nan nan nan nan nan nan nan nan nan nan nan nan nan nan nan nan nan nan 1 5 11 18 26 24 28 19 21 18 20 20 12 13 17 18 21 21 23 23 23 27 30 29 25
nan nan nan nan nan nan nan nan nan nan nan nan nan nan nan nan nan nan nan nan 7 10 18 21 22 22 21 21 17 14 13 16 17 20 21 22 23 22 25 22 29 30 33 29
nan nan nan nan nan nan nan nan nan nan nan nan nan nan nan nan nan nan nan nan 2 13 19 17 20 20 21 24 16 15 17 19 20 22 24 27 31 29 30 29 32 27 36 35
nan nan nan nan nan nan nan nan nan nan nan nan nan nan nan nan nan nan nan nan nan 10 16 15 15 21 21 18 14 17 21 22 21 24 27 31 34 33 33 28 39 43 28 41
nan nan nan nan nan nan nan nan nan nan nan nan nan nan nan nan nan nan nan nan nan 15 20 18 16 17 16 11 16 13 20 22 25 24 29 31 34 36 36 40 49 32 43 34
nan nan nan nan nan nan nan nan nan nan nan nan nan nan nan nan nan nan nan nan nan nan 24 17 15 14 12 8 7 12 14 19 23 27 30 31 35 36 40 50 58 nan nan nan
nan nan nan nan nan nan nan nan nan nan nan nan nan nan nan nan nan 22 21 19 19 21 23 20 22 18 14 11 9 8 9 13 19 24 32 30 34 39 47 54 61 nan nan nan
nan nan nan nan nan nan nan nan nan nan nan nan nan nan nan nan nan nan 19 13 17 17 16 16 16 20 18 16 14 11 13 16 23 27 30 34 39 46 51 59 58 56 60 65
46 nan nan nan nan nan nan nan nan nan nan nan nan nan nan nan nan nan 14 6 10 8 13 16 16 20 17 16 20 21 23 25 28 29 31 38 44 49 55 62 56 53 56 47
51 nan nan nan nan nan nan nan nan nan nan nan nan nan nan nan nan nan 19 6 12 13 14 13 20 23 21 24 24 26 29 32 34 35 38 42 48 53 57 60 60 57 49 50
nan nan nan nan nan nan nan nan nan nan nan nan nan nan nan nan nan nan nan nan 22 24 24 25 24 30 37 35 33 32 35 39 41 41 43 45 46 52 56 59 58 52 51 49
nan 62 nan nan nan nan nan nan nan nan nan nan nan nan nan nan nan 36 nan nan nan 41 37 43 44 45 42 41 43 44 46 47 48 51 53 50 52 56 45 51 53 57 51 48
51 58 58 46 33 nan nan nan nan nan nan nan nan nan nan nan nan nan nan 45 49 49 49 50 50 49 44 45 49 52 52 53 55 58 55 57 57 49 50 48 50 56 55 52
38 42 45 40 38 27 nan nan 25 30 nan nan nan nan 51 43 48 52 52 55 56 57 57 50 54 49 45 51 52 52 53 57 62 68 63 65 60 55 53 52 56 58 52 48
31 30 33 38 35 nan nan 31 27 27 40 44 54 nan 52 48 46 42 46 48 49 46 46 49 50 48 49 52 51 55 58 61 65 63 63 60 61 58 57 58 63 42 37 36
37 29 38 39 11 nan 44 40 39 nan nan nan nan nan nan 53 55 49 50 51 52 50 48 45 50 50 56 55 55 61 64 60 64 64 52 53 58 60 58 56 46 46 40 41
29 27 28 26 nan nan nan nan nan 40 43 nan nan nan 54 nan nan 50 51 53 51 49 53 53 50 51 50 55 56 58 63 53 48 47 55 59 57 52 51 49 nan nan nan nan
33 29 23 20 34 22 nan nan nan nan nan nan nan nan nan nan nan nan nan 53 52 51 52 51 48 49 50 49 54 53 54 47 51 52 49 53 55 52 nan nan nan nan nan nan
Wind_Direction
nan nan nan nan nan nan nan nan nan 169 nan 135 104 110 101 57 57 22 19 26 31 36 36 36 27 26 24 25 31 37 28 30 351 26 21 24 14 9 16 7 21 11 353 346
nan nan nan nan nan nan nan nan nan nan nan nan nan 119 126 67 53 45 25 25 31 37 31 31 33 29 21 22 30 32 34 28 40 5 312 321 328 348 349 331 331 332 333 333
nan nan nan nan nan nan nan nan nan nan nan nan 195 nan 115 101 72 62 52 42 30 27 15 15 16 17 17 18 13 17 25 13 340 324 280 283 285 292 304 311 312 321 319 319
nan nan nan nan nan nan nan nan nan nan nan nan nan nan nan 86 70 65 62 50 41 36 23 16 2 3 1 356 346 342 340 318 306 314 304 315 309 310 302 304 309 306 312 313
nan nan nan nan nan nan nan nan nan nan nan nan nan nan nan 204 116 74 57 46 37 22 14 21 10 358 344 332 316 313 310 307 313 314 311 307 315 306 304 311 319 319 311 317
nan nan nan nan nan nan nan nan nan nan nan nan nan nan nan 258 348 88 69 41 27 19 14 12 351 331 340 312 307 300 302 307 311 313 319 321 323 325 323 321 320 317 317 317
nan nan nan nan nan nan nan nan nan nan nan nan nan nan nan nan 64 85 98 51 20 3 2 8 5 347 332 321 303 294 302 313 321 318 314 331 344 336 333 326 321 317 315 315
nan nan nan nan nan nan nan nan nan nan nan nan nan nan nan nan nan nan 143 153 295 4 1 5 355 355 350 323 305 304 305 317 320 340 341 337 339 325 322 322 316 316 316 313
nan nan nan nan nan nan nan nan nan nan nan nan nan nan nan nan nan nan nan 267 16 22 8 359 344 346 358 350 338 314 310 329 343 350 340 335 331 327 320 320 314 310 312 311
nan nan nan nan nan nan nan nan nan nan nan nan nan nan nan nan nan nan nan nan 9 357 342 338 342 345 357 360 354 356 358 2 12 13 7 359 354 341 317 321 319 312 314 313
nan nan nan nan nan nan nan nan nan nan nan nan nan nan nan nan nan nan nan nan 281 329 329 327 342 343 357 7 13 27 27 17 13 10 5 356 345 325 329 319 306 319 312 311
nan nan nan nan nan nan nan nan nan nan nan nan nan nan nan nan nan nan nan nan nan 308 314 317 328 340 345 358 16 29 20 10 9 1 356 355 350 342 339 315 326 303 327 302
nan nan nan nan nan nan nan nan nan nan nan nan nan nan nan nan nan nan nan nan nan 278 294 307 309 330 338 4 2 7 4 8 359 354 358 352 345 333 338 318 290 276 292 279
nan nan nan nan nan nan nan nan nan nan nan nan nan nan nan nan nan nan nan nan nan nan 280 301 309 318 309 339 11 346 4 357 351 350 346 342 339 327 308 316 291 nan nan nan
nan nan nan nan nan nan nan nan nan nan nan nan nan nan nan nan nan 270 281 228 229 256 283 304 307 291 293 287 314 338 341 330 334 337 340 332 320 318 316 316 315 nan nan nan
nan nan nan nan nan nan nan nan nan nan nan nan nan nan nan nan nan nan 237 242 262 256 276 293 280 289 293 290 284 316 328 324 328 334 332 331 321 317 319 319 321 314 315 300
233 nan nan nan nan nan nan nan nan nan nan nan nan nan nan nan nan nan 205 257 274 267 282 286 289 295 290 303 300 310 312 315 317 317 321 327 324 324 322 320 320 318 312 319
237 nan nan nan nan nan nan nan nan nan nan nan nan nan nan nan nan nan 213 216 242 243 251 267 271 276 283 274 278 296 301 305 306 310 310 313 320 323 317 319 316 318 323 324
nan nan nan nan nan nan nan nan nan nan nan nan nan nan nan nan nan nan nan nan 226 248 244 246 248 252 261 280 290 297 292 291 297 300 300 306 312 316 317 319 316 314 319 322
nan 241 nan nan nan nan nan nan nan nan nan nan nan nan nan nan nan 227 nan nan nan 258 261 255 252 258 265 277 290 291 289 293 296 302 303 301 305 315 319 315 310 308 317 318
239 232 243 223 221 nan nan nan nan nan nan nan nan nan nan nan nan nan nan 247 253 258 259 256 258 261 271 278 283 284 288 294 302 296 294 306 304 301 307 310 305 306 311 314
250 246 246 232 219 220 nan nan 211 216 nan nan nan nan 243 242 243 244 245 248 251 257 257 255 251 248 270 269 277 284 284 288 289 282 308 307 306 312 298 306 306 309 308 311
244 246 258 260 223 nan nan 200 202 213 229 231 228 nan 247 244 240 238 243 243 245 244 242 253 259 271 268 270 274 276 280 274 291 295 301 303 306 305 307 307 311 317 314 304
229 237 244 246 201 nan 194 207 212 nan nan nan nan nan nan 237 235 237 241 246 249 251 253 259 260 263 262 258 263 272 276 281 293 291 302 298 304 303 304 299 299 304 303 294
224 231 262 244 nan nan nan nan nan 213 215 nan nan nan 237 nan nan 235 235 236 243 245 249 249 254 258 263 271 270 281 287 285 288 294 294 292 288 290 286 283 nan nan nan nan
207 218 238 270 250 194 nan nan nan nan nan nan nan nan nan nan nan nan nan 247 246 243 246 253 262 269 269 276 281 281 280 279 281 286 284 284 289 290 nan nan nan nan nan nan